Weather History for Albuquerque, NM

Change the Weather History Date:

Monday, December 24, 2012

  Actual Average Record
Temperature  
Mean Temperature 40 °F 35 °F  
Max Temperature 51 °F 45 °F 71 °F (1915)
Min Temperature 28 °F 26 °F -2 °F (1990)
Degree Days  
Heating Degree Days 25 30  
Month to date heating degree days 622 681  
Since 1 July heating degree days 1270 1548  
Cooling Degree Days 0 0  
Month to date cooling degree days 0 0  
Year to date cooling degree days 1768 1322  
Moisture  
Dew Point 19 °F    
Average Humidity 44    
Maximum Humidity 64    
Minimum Humidity 24    
Precipitation  
Precipitation 0.00 in 0.02 in 0.75 in (1914)
Month to date precipitation 0.09 0.40  
Year to date precipitation 5.43 9.35  
Snow  
Snow 0.00 in - - ()
Month to date snowfall T  
Since 1 July snowfall T  
Snow Depth 0.00 in    
Sea Level Pressure  
Sea Level Pressure 29.83 in    
Wind  
Wind Speed 7 mph (WSW)    
Max Wind Speed 28 mph    
Max Gust Speed 33 mph    
Visibility 10 miles    
Events      
T = Trace of Precipitation, MM = Missing Value Source: NWS Daily Summary

Daily Weather History Graph

Daily Weather History Graph

Search for Another Location

Airport:

Trip Planner

Search our weather history database for the weather conditions in past years. The results will help you decide how hot, cold, wet, or windy it might be!

Date:

Astronomy

Dec. 24, 2012 Rise Set
Actual Time 7:12 AM MST 5:00 PM MST
Civil Twilight 6:44 AM MST 5:28 PM MST
Nautical Twilight 6:12 AM MST 6:00 PM MST
Astronomical Twilight 5:41 AM MST 6:31 PM MST
Moon 2:27 PM MST (12/24) 3:56 AM MST (12/24)
Length of Visible Light 10h 44m
Length of Day
9h 48m
Waxing Gibbous, 89% of the Moon is Illuminated
Dec 24
Waxing Gibbous
Dec 28
Full
Jan 4
Last Quarter
Jan 11
New
Jan 18
First Quarter

Hourly Weather History & Observations

Time (MST) Temp. Windchill Dew Point Humidity Pressure Visibility Wind Dir Wind Speed Gust Speed Precip Events Conditions
12:52 AM 34.0 °F 27.2 °F 15.1 °F 46% 29.99 in 10.0 mi North 8.1 mph - N/A   Overcast
1:52 AM 35.1 °F 30.1 °F 16.0 °F 46% 29.98 in 10.0 mi North 5.8 mph - N/A   Mostly Cloudy
2:52 AM 35.1 °F 32.2 °F 16.0 °F 46% 29.98 in 10.0 mi NE 3.5 mph - N/A   Overcast
3:52 AM 32.0 °F - 15.1 °F 50% 29.96 in 10.0 mi Calm Calm - N/A   Overcast
4:52 AM 32.0 °F 27.5 °F 15.1 °F 50% 29.94 in 10.0 mi South 4.6 mph - N/A   Mostly Cloudy
5:52 AM 30.0 °F - 15.1 °F 54% 29.94 in 10.0 mi Calm Calm - N/A   Mostly Cloudy
6:52 AM 30.0 °F 26.5 °F 15.1 °F 54% 29.99 in 10.0 mi Variable 3.5 mph - N/A   Mostly Cloudy
7:52 AM 30.9 °F 26.2 °F 16.0 °F 54% 29.98 in 10.0 mi NW 4.6 mph - N/A   Overcast
8:52 AM 34.0 °F 31.0 °F 17.1 °F 50% 29.98 in 10.0 mi ESE 3.5 mph - N/A   Overcast
9:52 AM 37.9 °F - 17.1 °F 43% 29.95 in 10.0 mi Calm Calm - N/A   Overcast
10:52 AM 39.9 °F - 18.0 °F 41% 29.93 in 10.0 mi Calm Calm - N/A   Mostly Cloudy
11:52 AM 44.1 °F 38.6 °F 17.1 °F 34% 29.86 in 10.0 mi South 10.4 mph - N/A   Mostly Cloudy
12:52 PM 46.0 °F 40.2 °F 16.0 °F 30% 29.80 in 10.0 mi South 12.7 mph - N/A   Mostly Cloudy
1:52 PM 48.0 °F - 16.0 °F 28% 29.73 in 10.0 mi South 5.8 mph - N/A   Scattered Clouds
2:52 PM 51.1 °F - 15.1 °F 24% 29.68 in 10.0 mi SSW 11.5 mph - N/A   Scattered Clouds
3:52 PM 50.0 °F - 19.0 °F 29% 29.68 in 10.0 mi SSW 15.0 mph 25.3 mph N/A   Mostly Cloudy
4:52 PM 48.9 °F - 21.9 °F 35% 29.67 in 10.0 mi West 16.1 mph 26.5 mph N/A   Mostly Cloudy
5:52 PM 43.0 °F 35.7 °F 28.0 °F 56% 29.69 in 10.0 mi WSW 15.0 mph 33.4 mph N/A   Mostly Cloudy
6:52 PM 42.1 °F 33.9 °F 27.0 °F 55% 29.71 in 10.0 mi SW 17.3 mph 26.5 mph N/A   Mostly Cloudy
7:52 PM 41.0 °F 34.7 °F 28.0 °F 60% 29.71 in 10.0 mi West 10.4 mph - N/A   Mostly Cloudy
8:52 PM 39.0 °F 32.3 °F 26.1 °F 60% 29.72 in 10.0 mi NNW 10.4 mph - N/A   Overcast
9:52 PM 37.0 °F - 26.1 °F 65% 29.71 in 10.0 mi Calm Calm - N/A   Mostly Cloudy
10:52 PM 34.0 °F 29.8 °F 23.0 °F 64% 29.72 in 10.0 mi SW 4.6 mph - N/A   Scattered Clouds
11:52 PM 35.1 °F 27.9 °F 21.0 °F 57% 29.72 in 10.0 mi WNW 9.2 mph - N/A   Mostly Cloudy